Voltar ao catálogo

STARLINK-37771

AtivoComunicaçõesSSO
NORAD 69439·PAYLOAD·🇺🇸 United States

Lançado Jun 7, 2026 de Vandenberg Space Force Base

Loading…

Próximas Passagens (próximas 24 horas)

TLE

AtualizadoSource: CelesTrak SupGP

Época: Sep 14, 2026, 21:01 UTC

1 69439C 26126V   26257.87618056  .00011014  00000+0  34206-3 0  2572
2 69439  97.2848 119.1499 0001976  88.8262 139.3844 15.33416749    18

Acompanhe STARLINK-37771 em tempo real com AllMySat

Download on the App Store